Home > Weather > Nanaimo > Past weeks

Flag for Canada Weather for the Past 2 Weeks in Nanaimo, British Columbia, Canada

Now
45 °F

Quite cool.


Feels Like: 38 °F
Forecast: 43 / 50 °F
Wind: 14 mph from South

Location: Entrance Island

Current Time: Feb 13, 2016 at 5:57:19 PM

Latest Report: Feb 13, 2016 at 5:00 PM


Visibility: N/A

Pressure: 29.97 "Hg

Humidity: 90%

Dew point: 42 °F

Location of NanaimoLocation

Historic Weather in Nanaimo — Graph

°F

Nanaimo Temperature Yesterday

Maximum temperature yesterday: 54 °F (at 2:00 PM)
Minimum temperature yesterday: 46 °F (at 12:00 AM)
Average temperature yesterday: 49 °F

High & Low Weather Summary for the Past Weeks

 TemperatureHumidityPressure
High54 °F (Feb 12, 2:00 PM)100% (Feb 9, 7:00 AM)30.60 "Hg (Feb 9, 7:00 AM)
Low39 °F (Feb 9, 9:00 AM)65% (Feb 6, 1:00 AM)29.67 "Hg (Jan 29, 5:00 PM)
Average45 °F87%30.15 "Hg
* Reported Jan 29 5:00 PM — Feb 13 5:00 PM, Nanaimo, Weather by CustomWeather, © 2016

Note: Actual official high and low records may vary slightly from our data, if they occured in-between our weather recording intervals... More about our weather records

Advertising

Nanaimo Weather History for the Previous 24 Hours

 ConditionsComfort  
Time TempWeatherWind HumidityBarometerVisibility
5:00 PM
Sat, Feb 13
45 °FQuite cool.14 mph90%29.97 "HgN/A
4:00 PM45 °FQuite cool.20 mph95%29.98 "HgN/A
3:00 PM45 °FCool.20 mph93%30.03 "HgN/A
2:00 PM46 °FCool.24 mph87%30.06 "HgN/A
1:00 PM46 °FCool.25 mph93%30.09 "HgN/A
12:00 PM46 °FCool.22 mph91%30.12 "HgN/A
11:00 AM47 °FCool.24 mph87%30.13 "HgN/A
10:00 AM46 °FCool.18 mph84%30.17 "HgN/A
9:00 AM46 °FCool.21 mph87%30.16 "HgN/A
8:00 AM46 °FCool.15 mph85%30.16 "HgN/A
7:00 AM45 °FCool.12 mph86%30.14 "HgN/A
6:00 AM45 °FCool.8 mph85%30.16 "HgN/A
5:00 AM45 °FCool.12 mph83%30.14 "HgN/A
4:00 AM45 °FQuite cool.7 mph85%30.14 "HgN/A
3:00 AM46 °FCool.10 mph81%30.12 "HgN/A
2:00 AM46 °FCool.13 mph87%30.09 "HgN/A
1:00 AM47 °FCool.2 mph84%30.09 "HgN/A
12:00 AM48 °FCool.9 mph80%30.09 "HgN/A
11:00 PM
Fri, Feb 12
49 °FCool.6 mph66%30.09 "HgN/A
10:00 PM49 °FCool.3 mph74%30.08 "HgN/A
9:00 PM50 °FCool.6 mph73%30.07 "HgN/A
8:00 PM49 °FCool.7 mph72%30.07 "HgN/A
7:00 PM50 °FCool.13 mph74%30.06 "HgN/A
6:00 PM51 °FCool.8 mph75%30.05 "HgN/A
5:00 PM52 °FCool.8 mph75%30.04 "HgN/A
Weather by CustomWeather, © 2016

See weather overviewHow to use our weather pages